Regional Weather Roundup
Issued by NWS

Home | Current Version | Previous Version | Graphics & Text | Print | Product List | Glossary On
Versions: 1 2 3 4 5 6 7 8 9 10 11 12 13 14 15 16 17 18 19 20 21 22 23 24 25 26 27 28 29 30 31 32 33 34 35 36 37 38 39 40 41 42 43 44 45 46 47 48 49 50
881
ASUS43 KMKX 250111
RWRWI

WISCONSIN REGIONAL WEATHER ROUNDUP
NATIONAL WEATHER SERVICE MILWAUKEE/SULLIVAN WI
800 PM CDT WED AUG 24 2016

NOTE: "FAIR" INDICATES FEW OR NO CLOUDS BELOW 12,000 FEET WITH NO
SIGNIFICANT WEATHER AND/OR OBSTRUCTIONS TO VISIBILITY.

WIZ001-002-006>008-014>016-023>028-250200-
NORTHWEST WISCONSIN

CITY           SKY/WX    TMP DP  RH WIND       PRES   REMARKS
SUPERIOR ARPT  PTCLDY    71  58  62 W8        29.89R
ASHLAND        PTCLDY    69  58  67 SW7       29.88R
HAYWARD        CLOUDY    70  58  65 SW6       29.92R
SIREN          CLOUDY    69  57  65 W9        29.94S
CUMBERLAND     CLOUDY    66  54  63 W8        29.95R
RICE LAKE      CLOUDY    67  59  76 W5        29.96R
CHETEK         NOT AVBL
LADYSMITH      MOCLDY    70  59  69 W5        29.95R
EAU CLAIRE     PTCLDY    71  61  70 W6        29.93R
MENOMONIE      PTCLDY    72  58  60 W7        29.95R
NEW RICHMOND   CLOUDY    67  56  68 W6        29.97R
OSCEOLA        CLOUDY    67  58  72 W5        29.99R
$$

WIZ003>005-009-010-017-018-250200-
NORTH CENTRAL WISCONSIN

CITY           SKY/WX    TMP DP  RH WIND       PRES   REMARKS
MANITOWISH WTR NOT AVBL
ARBOR VITAE    CLEAR     70  67  90 CALM      29.92R
WOODRUFF       CLEAR     70  67  90 CALM      29.92R
RHINELANDER    CLEAR     68  66  93 CALM      29.93R
EAGLE RIVER    CLEAR     66  65  97 SW3       29.91S
LAND O LAKES   CLEAR     69  65  87 CALM      29.92S
PHILLIPS       CLOUDY    68  62  79 CALM      29.92S
TOMAHAWK       PTCLDY    67  63  86 CALM      29.93S
MEDFORD        CLOUDY    69  66  92 W5        29.94S
MERRILL        PTCLDY    70  67  88 W3        29.94R
$$

WIZ029-030-035-036-043>047-250200-
CENTRAL WISCONSIN

CITY           SKY/WX    TMP DP  RH WIND       PRES   REMARKS
WAUSAU         PTCLDY    71  66  84 W5        29.92R
MOSINEE        CLEAR     70  66  88 W6        29.95R
MARSHFIELD     PTCLDY    70  65  84 W5        29.94R
STEVENS POINT  PTCLDY    71  66  84 W3        29.94R
WAUPACA        PTCLDY    76  73  89 CALM      29.93R
WAUTOMA        PTCLDY    73  71  93 CALM      29.93S
WISC RAPIDS    PTCLDY    72  69  90 W3        29.95R
CAMP DOUGLAS   MOCLDY    72  68  88 W5        29.94R
$$

WIZ011>013-019>022-031-037>040-048>050-250200-
NORTHEAST WISCONSIN

CITY           SKY/WX    TMP DP  RH WIND       PRES   REMARKS
ANTIGO         PTCLDY    69  65  89 CALM      29.93S
SHAWANO        PTCLDY    75  67  75 W3        29.91R
OCONTO         NOT AVBL
STURGEON BAY   CLEAR     73  68  84 SW6       29.90R
GREEN BAY      CLEAR     73  70  90 SW5       29.91R
MANITOWOC      CLEAR     76  70  82 W5        29.92R
APPLETON       MOCLDY    73  66  78 SW3       29.91R
CLINTONVILLE   PTCLDY    73  66  78 W3        29.91R
OSHKOSH        CLEAR     75  70  84 CALM      29.92R
$$

WIZ032>034-041-042-053>061-250200-
SOUTHWEST WISCONSIN

CITY           SKY/WX    TMP DP  RH WIND       PRES   REMARKS
LA CROSSE      CLEAR     74  32  21 W5        29.94R
SPARTA         CLOUDY    71  69  92 W3        29.96R
VIROQUA        CLEAR     72  70  93 W3        29.97R
BOSCOBEL       MOCLDY    78  73  84 SW5       29.94R HX  81
PRAIRIE DU CHI MOCLDY    77  70  78 NW7       29.94R
PLATTEVILLE    CLOUDY    76  74  93 NW5       29.96S
$$

WIZ056-057-062-063-064-067-068-250200-
SOUTH CENTRAL WISCONSIN

CITY           SKY/WX    TMP DP  RH WIND       PRES   REMARKS
REEDSBURG      NOT AVBL
BARABOO/DELLS  MOCLDY    75  70  85 W3        29.95R
LONE ROCK      PTCLDY    77  72  84 NW5       29.94R
MINERAL POINT  CLOUDY    77  73  88 W6        29.96S
MADISON        CLOUDY    78  75  90 W3        29.93R HX  81
MIDDLETON      CLOUDY    77  75  95 CALM      29.94S
WATERTOWN      DRIZZLE   79  76  90 CALM      29.93R HX  82
MONROE         MOCLDY    79  72  78 W10       29.96R HX  82
JANESVILLE     PTCLDY    79  73  83 SW6       29.93S HX  82
$$

WIZ051-052-058>065-066-070>072-250200-
SOUTHEAST WISCONSIN

CITY           SKY/WX    TMP DP  RH WIND       PRES   REMARKS
MILWAUKEE      PTCLDY    83  71  67 W7        29.93R HX  87
WAUKESHA       PTCLDY    75  70  83 SW5       29.95R
MILWAUKEE/TIMM PTCLDY    79  68  69 W6        29.93  HX  81
RACINE         CLEAR     80  71  74 SW3       29.95R HX  84
BURLINGTON     PTCLDY    73  70  89 CALM      29.94S
KENOSHA        CLEAR     78  72  81 SW6       29.94R HX  80
FOND DU LAC    CLEAR     74  70  87 S3        29.93R
SHEBOYGAN      CLEAR     76  70  82 W5        29.92R
WEST BEND      MOCLDY    77  70  78 NW5       29.94R
JUNEAU         MOCLDY    76  72  87 CALM      29.94S
$$

LSZ147-162-250200-
LAKE SUPERIOR

STATION/POSITION TIME  TEMP    WIND        PRES    WAVE
                       AIR SEA DIR/SP/G            HT/PER
                 (UTC) (F)     (DEG/KT/KT) (MB)    (FT/S)
W MID LAKE BUOY  0050   72 69  240/ 14/ 16 1008.3R   2/ 4
DEVILS ISLAND    0000   71     250/ 16/ 17 1009.7R
PORT WING        0040   75     240/  8/ 14 1011.5R
SAXON HARBOR     0040   72     200/  3/  5 1011.2R
$$

LMZ867-665-643>646-250200-
LAKE MICHIGAN

STATION/POSITION TIME  TEMP    WIND        PRES    WAVE
                       AIR SEA DIR/SP/G            HT/PER
                 (UTC) (F)     (DEG/KT/KT) (MB)    (FT/S)
CHAMBERS ISLAND  0000   74     200/  4/  9 1011.2R
S GREEN BAY BUOY 0000   76 73  240/  8/ 10 1011.3
N MID LAKE BUOY  0050   71 70  230/ 12/ 14 1010.3R   6/ 7
NORTHPORT PIER   0000   75     230/  3/  8 1010.8R
SISTER BAY       0037   75     230/  8/  9   N/A
ALGOMA LAKESHORE 0000          260/  8/ 10   N/A
KEWAUNEE LAKESHO 0000   79     270/  5/  9 1011.6R
SHEBOYGAN LAKESH 0100   76     340/  3/  4 1012.3R
PORT WASHINGTON  0100   65     280/  2/ 11 1013.9R
ATWATER BUOY     0000   72 45  260/  6/  8   N/A
MILWAUKEE LAKESH 0010   83     270/  9/ 12   N/A
S MID LAKE BUOY  0050   75 75  180/  8/ 10 1012.8R   2/ 5
KENOSHA   LAKESH 0100   82     240/  4/  8 1013.2R
$$

TC  - TEMPERATURE IN CELSIUS
VSB - VISIBILITY IN STATUTE MILES
WCI - WIND CHILL INDEX
HX  - HEAT INDEX





USA.gov is the U.S. government's official web portal to all federal, state and local government web resources and services.